Year,Month,Day,Hour,Minute,Value (Times are PST for windgust in km/hr)
2017,06,08,00,00,6.40
2017,06,08,00,01,8.10
2017,06,08,00,02,6.40
2017,06,08,00,03,6.40
2017,06,08,00,04,9.60
2017,06,08,00,05,12.90
2017,06,08,00,06,12.90
2017,06,08,00,07,12.90
2017,06,08,00,08,12.90
2017,06,08,00,09,9.60
2017,06,08,00,10,9.60
2017,06,08,00,11,9.60
2017,06,08,00,12,9.60
2017,06,08,00,13,9.60
2017,06,08,00,14,8.10
2017,06,08,00,15,8.10
2017,06,08,00,16,6.40
2017,06,08,00,17,8.10
2017,06,08,00,18,6.40
2017,06,08,00,19,6.40
2017,06,08,00,20,6.40
2017,06,08,00,21,6.40
2017,06,08,00,22,6.40
2017,06,08,00,23,4.80
2017,06,08,00,24,4.80
2017,06,08,00,25,3.20
2017,06,08,00,26,3.20
2017,06,08,00,27,3.20
2017,06,08,00,28,4.80
2017,06,08,00,29,4.80
2017,06,08,00,30,4.80
2017,06,08,00,31,4.80
2017,06,08,00,32,4.80
2017,06,08,00,33,4.80
2017,06,08,00,34,4.80
2017,06,08,00,35,4.80
2017,06,08,00,36,4.80
2017,06,08,00,37,4.80
2017,06,08,00,38,4.80
2017,06,08,00,39,3.20
2017,06,08,00,40,3.20
2017,06,08,00,41,3.20
2017,06,08,00,42,4.80
2017,06,08,00,43,4.80
2017,06,08,00,44,3.20
2017,06,08,00,45,3.20
2017,06,08,00,46,3.20
2017,06,08,00,47,3.20
2017,06,08,00,48,3.20
2017,06,08,00,49,3.20
2017,06,08,00,50,4.80
2017,06,08,00,51,4.80
2017,06,08,00,52,4.80
2017,06,08,00,53,6.40
2017,06,08,00,54,6.40
2017,06,08,00,55,6.40
2017,06,08,00,56,6.40
2017,06,08,00,57,6.40
2017,06,08,00,58,6.40
2017,06,08,00,59,6.40
2017,06,08,01,00,4.80
2017,06,08,01,01,4.80
2017,06,08,01,02,3.20
2017,06,08,01,03,3.20
2017,06,08,01,04,3.20
2017,06,08,01,05,1.60
2017,06,08,01,06,3.20
2017,06,08,01,07,3.20
2017,06,08,01,08,3.20
2017,06,08,01,09,3.20
2017,06,08,01,10,1.60
2017,06,08,01,11,1.60
2017,06,08,01,12,3.20
2017,06,08,01,13,3.20
2017,06,08,01,14,3.20
2017,06,08,01,15,1.60
2017,06,08,01,16,1.60
2017,06,08,01,17,3.20
2017,06,08,01,18,4.80
2017,06,08,01,19,4.80
2017,06,08,01,20,4.80
2017,06,08,01,21,4.80
2017,06,08,01,22,8.10
2017,06,08,01,23,8.10
2017,06,08,01,24,6.40
2017,06,08,01,25,8.10
2017,06,08,01,26,6.40
2017,06,08,01,27,6.40
2017,06,08,01,28,6.40
2017,06,08,01,29,6.40
2017,06,08,01,30,4.80
2017,06,08,01,31,3.20
2017,06,08,01,32,1.60
2017,06,08,01,33,1.60
2017,06,08,01,34,1.60
2017,06,08,01,36,3.20
2017,06,08,01,37,1.60
2017,06,08,01,56,1.60
2017,06,08,01,57,1.60
2017,06,08,01,58,1.60
2017,06,08,01,59,1.60
2017,06,08,02,26,3.20
2017,06,08,02,27,1.60
2017,06,08,02,28,3.20
2017,06,08,02,29,3.20
2017,06,08,02,30,3.20
2017,06,08,02,31,1.60
2017,06,08,02,32,1.60
2017,06,08,02,33,1.60
2017,06,08,02,39,1.60
2017,06,08,02,40,1.60
2017,06,08,02,43,3.20
2017,06,08,02,44,4.80
2017,06,08,02,45,4.80
2017,06,08,02,46,4.80
2017,06,08,02,47,4.80
2017,06,08,02,48,6.40
2017,06,08,02,49,6.40
2017,06,08,02,50,4.80
2017,06,08,02,51,4.80
2017,06,08,02,52,4.80
2017,06,08,02,53,6.40
2017,06,08,02,54,4.80
2017,06,08,02,55,4.80
2017,06,08,02,56,3.20
2017,06,08,02,57,3.20
2017,06,08,02,58,4.80
2017,06,08,02,59,6.40
2017,06,08,03,00,4.80
2017,06,08,03,01,4.80
2017,06,08,03,02,4.80
2017,06,08,03,03,4.80
2017,06,08,03,04,3.20
2017,06,08,03,05,1.60
2017,06,08,03,06,1.60
2017,06,08,03,07,3.20
2017,06,08,03,08,3.20
2017,06,08,03,09,3.20
2017,06,08,03,10,1.60
2017,06,08,03,11,1.60
2017,06,08,03,13,1.60
2017,06,08,03,14,1.60
2017,06,08,03,15,3.20
2017,06,08,03,16,1.60
2017,06,08,03,17,3.20
2017,06,08,03,27,1.60
2017,06,08,03,46,1.60
2017,06,08,03,47,1.60
2017,06,08,03,48,1.60
2017,06,08,03,49,1.60
2017,06,08,03,50,3.20
2017,06,08,03,51,3.20
2017,06,08,03,52,1.60
2017,06,08,03,53,1.60
2017,06,08,03,54,1.60
2017,06,08,03,56,1.60
2017,06,08,03,57,1.60
2017,06,08,03,58,4.80
2017,06,08,03,59,6.40
2017,06,08,04,00,4.80
2017,06,08,04,01,4.80
2017,06,08,04,02,3.20
2017,06,08,04,03,3.20
2017,06,08,04,04,4.80
2017,06,08,04,05,4.80
2017,06,08,04,06,3.20
2017,06,08,04,07,4.80
2017,06,08,04,08,1.60
2017,06,08,04,09,1.60
2017,06,08,04,10,4.80
2017,06,08,04,11,6.40
2017,06,08,04,12,6.40
2017,06,08,04,13,6.40
2017,06,08,04,14,8.10
2017,06,08,04,15,4.80
2017,06,08,04,16,3.20
2017,06,08,04,17,1.60
2017,06,08,04,18,1.60
2017,06,08,04,20,3.20
2017,06,08,04,21,3.20
2017,06,08,04,22,1.60
2017,06,08,04,23,1.60
2017,06,08,04,24,1.60
2017,06,08,04,25,1.60
2017,06,08,04,35,3.20
2017,06,08,04,36,1.60
2017,06,08,04,37,1.60
2017,06,08,04,38,3.20
2017,06,08,04,39,4.80
2017,06,08,04,40,3.20
2017,06,08,04,41,3.20
2017,06,08,04,42,1.60
2017,06,08,04,43,3.20
2017,06,08,04,44,1.60
2017,06,08,04,45,1.60
2017,06,08,04,50,3.20
2017,06,08,04,51,3.20
2017,06,08,04,52,4.80
2017,06,08,04,53,3.20
2017,06,08,04,54,3.20
2017,06,08,04,55,3.20
2017,06,08,04,56,4.80
2017,06,08,04,57,3.20
2017,06,08,04,58,3.20
2017,06,08,04,59,3.20
2017,06,08,05,00,4.80
2017,06,08,05,01,4.80
2017,06,08,05,02,4.80
2017,06,08,05,03,4.80
2017,06,08,05,04,4.80
2017,06,08,05,05,4.80
2017,06,08,05,06,4.80
2017,06,08,05,07,4.80
2017,06,08,05,08,4.80
2017,06,08,05,09,4.80
2017,06,08,05,10,4.80
2017,06,08,05,11,4.80
2017,06,08,05,12,4.80
2017,06,08,05,13,4.80
2017,06,08,05,14,4.80
2017,06,08,05,15,4.80
2017,06,08,05,16,4.80
2017,06,08,05,17,4.80
2017,06,08,05,18,4.80
2017,06,08,05,19,4.80
2017,06,08,05,20,6.40
2017,06,08,05,21,6.40
2017,06,08,05,22,6.40
2017,06,08,05,23,6.40
2017,06,08,05,24,8.10
2017,06,08,05,25,8.10
2017,06,08,05,26,8.10
2017,06,08,05,27,6.40
2017,06,08,05,28,6.40
2017,06,08,05,29,6.40
2017,06,08,05,30,6.40
2017,06,08,05,31,6.40
2017,06,08,05,32,6.40
2017,06,08,05,33,4.80
2017,06,08,05,34,6.40
2017,06,08,05,35,6.40
2017,06,08,05,36,4.80
2017,06,08,05,37,6.40
2017,06,08,05,38,6.40
2017,06,08,05,39,6.40
2017,06,08,05,40,4.80
2017,06,08,05,41,6.40
2017,06,08,05,42,6.40
2017,06,08,05,43,4.80
2017,06,08,05,44,4.80
2017,06,08,05,45,6.40
2017,06,08,05,46,4.80
2017,06,08,05,47,4.80
2017,06,08,05,48,6.40
2017,06,08,05,49,6.40
2017,06,08,05,50,6.40
2017,06,08,05,51,6.40
2017,06,08,05,52,8.10
2017,06,08,05,53,8.10
2017,06,08,05,54,8.10
2017,06,08,05,55,8.10
2017,06,08,05,56,8.10
2017,06,08,05,57,4.80
2017,06,08,05,58,6.40
2017,06,08,05,59,4.80
2017,06,08,06,00,4.80
2017,06,08,06,01,4.80
2017,06,08,06,02,4.80
2017,06,08,06,03,6.40
2017,06,08,06,04,6.40
2017,06,08,06,05,6.40
2017,06,08,06,06,6.40
2017,06,08,06,07,4.80
2017,06,08,06,08,6.40
2017,06,08,06,09,6.40
2017,06,08,06,10,6.40
2017,06,08,06,11,4.80
2017,06,08,06,12,6.40
2017,06,08,06,13,8.10
2017,06,08,06,14,6.40
2017,06,08,06,15,6.40
2017,06,08,06,16,6.40
2017,06,08,06,17,8.10
2017,06,08,06,18,8.10
2017,06,08,06,19,8.10
2017,06,08,06,20,6.40
2017,06,08,06,21,6.40
2017,06,08,06,22,6.40
2017,06,08,06,23,6.40
2017,06,08,06,24,6.40
2017,06,08,06,25,4.80
2017,06,08,06,26,4.80
2017,06,08,06,27,4.80
2017,06,08,06,28,4.80
2017,06,08,06,29,4.80
2017,06,08,06,30,4.80
2017,06,08,06,31,4.80
2017,06,08,06,32,4.80
2017,06,08,06,33,4.80
2017,06,08,06,34,4.80
2017,06,08,06,35,4.80
2017,06,08,06,36,3.20
2017,06,08,06,37,3.20
2017,06,08,06,38,3.20
2017,06,08,06,39,3.20
2017,06,08,06,40,4.80
2017,06,08,06,41,4.80
2017,06,08,06,42,4.80
2017,06,08,06,43,4.80
2017,06,08,06,44,4.80
2017,06,08,06,45,4.80
2017,06,08,06,46,4.80
2017,06,08,06,47,4.80
2017,06,08,06,48,4.80
2017,06,08,06,49,4.80
2017,06,08,06,50,4.80
2017,06,08,06,51,3.20
2017,06,08,06,52,4.80
2017,06,08,06,53,4.80
2017,06,08,06,54,4.80
2017,06,08,06,55,4.80
2017,06,08,06,56,4.80
2017,06,08,06,57,4.80
2017,06,08,06,58,4.80
2017,06,08,06,59,4.80
2017,06,08,07,00,4.80
2017,06,08,07,01,6.40
2017,06,08,07,02,4.80
2017,06,08,07,03,4.80
2017,06,08,07,04,4.80
2017,06,08,07,05,4.80
2017,06,08,07,06,4.80
2017,06,08,07,07,4.80
2017,06,08,07,08,4.80
2017,06,08,07,09,4.80
2017,06,08,07,10,4.80
2017,06,08,07,11,4.80
2017,06,08,07,12,4.80
2017,06,08,07,13,4.80
2017,06,08,07,14,4.80
2017,06,08,07,15,4.80
2017,06,08,07,16,4.80
2017,06,08,07,17,4.80
2017,06,08,07,18,4.80
2017,06,08,07,19,4.80
2017,06,08,07,20,4.80
2017,06,08,07,21,4.80
2017,06,08,07,22,4.80
2017,06,08,07,23,4.80
2017,06,08,07,24,4.80
2017,06,08,07,25,3.20
2017,06,08,07,26,3.20
2017,06,08,07,27,3.20
2017,06,08,07,28,3.20
2017,06,08,07,29,3.20
2017,06,08,07,30,3.20
2017,06,08,07,31,3.20
2017,06,08,07,32,3.20
2017,06,08,07,33,3.20
2017,06,08,07,34,3.20
2017,06,08,07,35,3.20
2017,06,08,07,36,4.80
2017,06,08,07,37,4.80
2017,06,08,07,38,3.20
2017,06,08,07,39,4.80
2017,06,08,07,40,3.20
2017,06,08,07,41,4.80
2017,06,08,07,42,3.20
2017,06,08,07,43,3.20
2017,06,08,07,44,3.20
2017,06,08,07,45,3.20
2017,06,08,07,46,3.20
2017,06,08,07,47,3.20
2017,06,08,07,48,3.20
2017,06,08,07,49,3.20
2017,06,08,07,50,3.20
2017,06,08,07,51,4.80
2017,06,08,07,52,4.80
2017,06,08,07,53,4.80
2017,06,08,07,54,4.80
2017,06,08,07,55,4.80
2017,06,08,07,56,4.80
2017,06,08,07,57,4.80
2017,06,08,07,58,4.80
2017,06,08,07,59,4.80
2017,06,08,08,00,4.80
2017,06,08,08,01,4.80
2017,06,08,08,02,4.80
2017,06,08,08,03,4.80
2017,06,08,08,04,4.80
2017,06,08,08,05,4.80
2017,06,08,08,06,4.80
2017,06,08,08,07,4.80
2017,06,08,08,08,4.80
2017,06,08,08,09,4.80
2017,06,08,08,10,4.80
2017,06,08,08,11,3.20
2017,06,08,08,12,4.80
2017,06,08,08,13,3.20
2017,06,08,08,14,4.80
2017,06,08,08,15,3.20
2017,06,08,08,16,3.20
2017,06,08,08,17,4.80
2017,06,08,08,18,4.80
2017,06,08,08,19,4.80
2017,06,08,08,20,6.40
2017,06,08,08,21,4.80
2017,06,08,08,22,4.80
2017,06,08,08,23,6.40
2017,06,08,08,24,4.80
2017,06,08,08,25,4.80
2017,06,08,08,26,6.40
2017,06,08,08,27,6.40
2017,06,08,08,28,6.40
2017,06,08,08,29,6.40
2017,06,08,08,30,6.40
2017,06,08,08,31,8.10
2017,06,08,08,32,6.40
2017,06,08,08,33,6.40
2017,06,08,08,34,6.40
2017,06,08,08,35,6.40
2017,06,08,08,36,4.80
2017,06,08,08,37,6.40
2017,06,08,08,38,4.80
2017,06,08,08,39,4.80
2017,06,08,08,40,6.40
2017,06,08,08,41,6.40
2017,06,08,08,42,6.40
2017,06,08,08,43,6.40
2017,06,08,08,44,6.40
2017,06,08,08,45,6.40
2017,06,08,08,46,4.80
2017,06,08,08,47,4.80
2017,06,08,08,48,4.80
2017,06,08,08,49,4.80
2017,06,08,08,50,4.80
2017,06,08,08,51,4.80
2017,06,08,08,52,4.80
2017,06,08,08,53,4.80
2017,06,08,08,54,3.20
2017,06,08,08,55,3.20
2017,06,08,08,56,3.20
2017,06,08,08,57,4.80
2017,06,08,08,58,4.80
2017,06,08,08,59,4.80
2017,06,08,09,00,4.80
2017,06,08,09,01,4.80
2017,06,08,09,02,6.40
2017,06,08,09,03,6.40
2017,06,08,09,04,4.80
2017,06,08,09,05,3.20
2017,06,08,09,06,4.80
2017,06,08,09,07,4.80
2017,06,08,09,08,4.80
2017,06,08,09,09,4.80
2017,06,08,09,10,4.80
2017,06,08,09,11,6.40
2017,06,08,09,12,6.40
2017,06,08,09,13,4.80
2017,06,08,09,14,4.80
2017,06,08,09,15,8.10
2017,06,08,09,16,6.40
2017,06,08,09,17,6.40
2017,06,08,09,18,8.10
2017,06,08,09,19,8.10
2017,06,08,09,20,8.10
2017,06,08,09,21,6.40
2017,06,08,09,22,8.10
2017,06,08,09,23,6.40
2017,06,08,09,24,6.40
2017,06,08,09,25,6.40
2017,06,08,09,26,8.10
2017,06,08,09,27,8.10
2017,06,08,09,28,6.40
2017,06,08,09,29,6.40
2017,06,08,09,30,8.10
2017,06,08,09,31,6.40
2017,06,08,09,32,6.40
2017,06,08,09,33,4.80
2017,06,08,09,34,6.40
2017,06,08,09,35,6.40
2017,06,08,09,36,6.40
2017,06,08,09,37,4.80
2017,06,08,09,38,4.80
2017,06,08,09,39,4.80
2017,06,08,09,40,4.80
2017,06,08,09,41,6.40
2017,06,08,09,42,6.40
2017,06,08,09,43,4.80
2017,06,08,09,44,6.40
2017,06,08,09,45,6.40
2017,06,08,09,46,6.40
2017,06,08,09,47,6.40
2017,06,08,09,48,6.40
2017,06,08,09,49,6.40
2017,06,08,09,50,6.40
2017,06,08,09,51,4.80
2017,06,08,09,52,4.80
2017,06,08,09,53,4.80
2017,06,08,09,54,4.80
2017,06,08,09,55,4.80
2017,06,08,09,56,4.80
2017,06,08,09,57,3.20
2017,06,08,09,58,3.20
2017,06,08,09,59,3.20
2017,06,08,10,00,3.20
2017,06,08,10,01,3.20
2017,06,08,10,02,3.20
2017,06,08,10,03,3.20
2017,06,08,10,04,3.20
2017,06,08,10,05,3.20
2017,06,08,10,06,3.20
2017,06,08,10,07,1.60
2017,06,08,10,08,3.20
2017,06,08,10,09,3.20
2017,06,08,10,10,4.80
2017,06,08,10,11,4.80
2017,06,08,10,12,3.20
2017,06,08,10,13,3.20
2017,06,08,10,14,4.80
2017,06,08,10,15,4.80
2017,06,08,10,16,4.80
2017,06,08,10,17,4.80
2017,06,08,10,18,4.80
2017,06,08,10,19,3.20
2017,06,08,10,20,3.20
2017,06,08,10,21,4.80
2017,06,08,10,22,4.80
2017,06,08,10,23,4.80
2017,06,08,10,24,4.80
2017,06,08,10,25,4.80
2017,06,08,10,26,4.80
2017,06,08,10,27,4.80
2017,06,08,10,28,4.80
2017,06,08,10,29,4.80
2017,06,08,10,30,4.80
2017,06,08,10,31,4.80
2017,06,08,10,32,4.80
2017,06,08,10,33,4.80
2017,06,08,10,34,6.40
2017,06,08,10,35,6.40
2017,06,08,10,36,6.40
2017,06,08,10,37,4.80
2017,06,08,10,38,4.80
2017,06,08,10,39,6.40
2017,06,08,10,40,4.80
2017,06,08,10,41,6.40
2017,06,08,10,42,6.40
2017,06,08,10,43,4.80
2017,06,08,10,44,4.80
2017,06,08,10,45,6.40
2017,06,08,10,46,6.40
2017,06,08,10,47,6.40
2017,06,08,10,48,4.80
2017,06,08,10,49,4.80
2017,06,08,10,50,4.80
2017,06,08,10,51,4.80
2017,06,08,10,52,4.80
2017,06,08,10,53,4.80
2017,06,08,10,54,4.80
2017,06,08,10,55,4.80
2017,06,08,10,56,3.20
2017,06,08,10,57,4.80
2017,06,08,10,58,4.80
2017,06,08,10,59,3.20
2017,06,08,11,00,3.20
2017,06,08,11,01,3.20
2017,06,08,11,02,3.20
2017,06,08,11,03,3.20
2017,06,08,11,04,4.80
2017,06,08,11,05,3.20
2017,06,08,11,06,4.80
2017,06,08,11,07,4.80
2017,06,08,11,08,4.80
2017,06,08,11,09,4.80
2017,06,08,11,10,4.80
2017,06,08,11,11,4.80
2017,06,08,11,12,4.80
2017,06,08,11,13,4.80
2017,06,08,11,14,4.80
2017,06,08,11,15,4.80
2017,06,08,11,16,3.20
2017,06,08,11,17,3.20
2017,06,08,11,18,1.60
2017,06,08,11,19,1.60
2017,06,08,11,20,1.60
2017,06,08,11,21,1.60
2017,06,08,11,39,3.20
2017,06,08,11,40,3.20
2017,06,08,11,41,3.20
2017,06,08,11,42,4.80
2017,06,08,11,43,4.80
2017,06,08,11,44,6.40
2017,06,08,11,45,8.10
2017,06,08,11,46,4.80
2017,06,08,11,47,4.80
2017,06,08,11,48,6.40
2017,06,08,11,49,6.40
2017,06,08,11,50,6.40
2017,06,08,11,51,4.80
2017,06,08,11,52,3.20
2017,06,08,11,53,3.20
2017,06,08,11,54,4.80
2017,06,08,11,55,3.20
2017,06,08,11,56,9.60
2017,06,08,11,57,14.50
2017,06,08,11,58,11.30
2017,06,08,11,59,9.60
2017,06,08,12,00,6.40
2017,06,08,12,01,4.80
2017,06,08,12,02,4.80
2017,06,08,12,03,3.20
2017,06,08,12,04,4.80
2017,06,08,12,09,4.80
2017,06,08,12,10,8.10
2017,06,08,12,11,6.40
2017,06,08,12,12,4.80
2017,06,08,12,13,6.40
2017,06,08,12,14,4.80
2017,06,08,12,15,3.20
2017,06,08,12,16,1.60
2017,06,08,12,18,3.20
2017,06,08,12,19,9.60
2017,06,08,12,20,9.60
2017,06,08,12,21,11.30
2017,06,08,12,22,9.60
2017,06,08,12,23,4.80
2017,06,08,12,24,6.40
2017,06,08,12,25,8.10
2017,06,08,12,26,8.10
2017,06,08,12,27,6.40
2017,06,08,12,28,8.10
2017,06,08,12,29,9.60
2017,06,08,12,30,9.60
2017,06,08,12,31,8.10
2017,06,08,12,32,8.10
2017,06,08,12,33,12.90
2017,06,08,12,34,12.90
2017,06,08,12,35,9.60
2017,06,08,12,36,8.10
2017,06,08,12,37,9.60
2017,06,08,12,38,8.10
2017,06,08,12,39,8.10
2017,06,08,12,40,8.10
2017,06,08,12,41,9.60
2017,06,08,12,42,11.30
2017,06,08,12,43,12.90
2017,06,08,12,44,12.90
2017,06,08,12,45,9.60
2017,06,08,12,46,8.10
2017,06,08,12,47,11.30
2017,06,08,12,48,17.70
2017,06,08,12,49,11.30
2017,06,08,12,50,9.60
2017,06,08,12,51,12.90
2017,06,08,12,52,9.60
2017,06,08,12,53,8.10
2017,06,08,12,54,16.10
2017,06,08,12,55,16.10
2017,06,08,12,56,29.00
2017,06,08,12,57,14.50
2017,06,08,12,58,19.30
2017,06,08,12,59,14.50
2017,06,08,13,00,16.10
2017,06,08,13,01,12.90
2017,06,08,13,02,11.30
2017,06,08,13,03,8.10
2017,06,08,13,04,11.30
2017,06,08,13,05,14.50
2017,06,08,13,06,16.10
2017,06,08,13,07,17.70
2017,06,08,13,08,19.30
2017,06,08,13,09,12.90
2017,06,08,13,10,24.20
2017,06,08,13,11,20.90
2017,06,08,13,12,22.50
2017,06,08,13,13,12.90
2017,06,08,13,14,19.30
2017,06,08,13,15,25.70
2017,06,08,13,16,16.10
2017,06,08,13,17,22.50
2017,06,08,13,18,14.50
2017,06,08,13,19,14.50
2017,06,08,13,20,16.10
2017,06,08,13,21,16.10
2017,06,08,13,22,14.50
2017,06,08,13,23,16.10
2017,06,08,13,24,17.70
2017,06,08,13,25,40.20
2017,06,08,13,26,32.20
2017,06,08,13,27,43.50
2017,06,08,13,28,32.20
2017,06,08,13,29,20.90
2017,06,08,13,30,27.40
2017,06,08,13,31,19.30
2017,06,08,13,32,20.90
2017,06,08,13,33,29.00
2017,06,08,13,34,17.70
2017,06,08,13,35,20.90
2017,06,08,13,36,24.20
2017,06,08,13,37,27.40
2017,06,08,13,38,24.20
2017,06,08,13,39,25.70
2017,06,08,13,40,33.80
2017,06,08,13,41,27.40
2017,06,08,13,42,25.70
2017,06,08,13,43,24.20
2017,06,08,13,44,25.70
2017,06,08,13,45,19.30
2017,06,08,13,46,24.20
2017,06,08,13,47,20.90
2017,06,08,13,48,22.50
2017,06,08,13,49,17.70
2017,06,08,13,50,17.70
2017,06,08,13,51,29.00
2017,06,08,13,52,14.50
2017,06,08,13,53,17.70
2017,06,08,13,54,38.60
2017,06,08,13,55,30.60
2017,06,08,13,56,43.50
2017,06,08,13,57,37.00
2017,06,08,13,58,32.20
2017,06,08,13,59,22.50
2017,06,08,14,00,30.60
2017,06,08,14,01,33.80
2017,06,08,14,02,30.60
2017,06,08,14,03,25.70
2017,06,08,14,04,22.50
2017,06,08,14,05,22.50
2017,06,08,14,06,24.20
2017,06,08,14,07,29.00
2017,06,08,14,08,25.70
2017,06,08,14,09,32.20
2017,06,08,14,10,27.40
2017,06,08,14,11,25.70
2017,06,08,14,12,30.60
2017,06,08,14,13,35.40
2017,06,08,14,14,33.80
2017,06,08,14,15,46.70
2017,06,08,14,16,41.80
2017,06,08,14,17,25.70
2017,06,08,14,18,19.30
2017,06,08,14,19,27.40
2017,06,08,14,20,33.80
2017,06,08,14,21,40.20
2017,06,08,14,22,37.00
2017,06,08,14,23,30.60
2017,06,08,14,24,40.20
2017,06,08,14,25,48.30
2017,06,08,14,26,43.50
2017,06,08,14,27,43.50
2017,06,08,14,28,37.00
2017,06,08,14,29,20.90
2017,06,08,14,30,46.70
2017,06,08,14,31,38.60
2017,06,08,14,32,46.70
2017,06,08,14,33,40.20
2017,06,08,14,34,30.60
2017,06,08,14,35,32.20
2017,06,08,14,36,27.40
2017,06,08,14,37,27.40
2017,06,08,14,38,20.90
2017,06,08,14,39,25.70
2017,06,08,14,40,22.50
2017,06,08,14,41,30.60
2017,06,08,14,42,33.80
2017,06,08,14,43,30.60
2017,06,08,14,44,32.20
2017,06,08,14,45,32.20
2017,06,08,14,46,30.60
2017,06,08,14,47,30.60
2017,06,08,14,48,24.20
2017,06,08,14,49,32.20
2017,06,08,14,50,37.00
2017,06,08,14,51,30.60
2017,06,08,14,52,29.00
2017,06,08,14,53,40.20
2017,06,08,14,54,40.20
2017,06,08,14,55,32.20
2017,06,08,14,56,22.50
2017,06,08,14,57,33.80
2017,06,08,14,58,30.60
2017,06,08,14,59,24.20
2017,06,08,15,00,41.80
2017,06,08,15,01,46.70
2017,06,08,15,02,37.00
2017,06,08,15,03,45.10
2017,06,08,15,04,32.20
2017,06,08,15,05,25.70
2017,06,08,15,06,30.60
2017,06,08,15,07,40.20
2017,06,08,15,08,41.80
2017,06,08,15,09,46.70
2017,06,08,15,10,45.10
2017,06,08,15,11,43.50
2017,06,08,15,12,45.10
2017,06,08,15,13,27.40
2017,06,08,15,14,35.40
2017,06,08,15,15,43.50
2017,06,08,15,16,33.80
2017,06,08,15,17,38.60
2017,06,08,15,18,46.70
2017,06,08,15,19,38.60
2017,06,08,15,20,30.60
2017,06,08,15,21,38.60
2017,06,08,15,22,35.40
2017,06,08,15,23,29.00
2017,06,08,15,24,22.50
2017,06,08,15,25,30.60
2017,06,08,15,26,43.50
2017,06,08,15,27,37.00
2017,06,08,15,28,45.10
2017,06,08,15,29,38.60
2017,06,08,15,30,45.10
2017,06,08,15,31,25.70
2017,06,08,15,32,40.20
2017,06,08,15,33,40.20
2017,06,08,15,34,37.00
2017,06,08,15,35,32.20
2017,06,08,15,36,24.20
2017,06,08,15,37,41.80
2017,06,08,15,38,32.20
2017,06,08,15,39,37.00
2017,06,08,15,40,19.30
2017,06,08,15,41,29.00
2017,06,08,15,42,45.10
2017,06,08,15,43,41.80
2017,06,08,15,44,48.30
2017,06,08,15,45,54.70
2017,06,08,15,46,53.10
2017,06,08,15,47,61.20
2017,06,08,15,48,29.00
2017,06,08,15,49,40.20
2017,06,08,15,50,48.30
2017,06,08,15,51,45.10
2017,06,08,15,52,29.00
2017,06,08,15,53,41.80
2017,06,08,15,54,33.80
2017,06,08,15,55,38.60
2017,06,08,15,56,43.50
2017,06,08,15,57,46.70
2017,06,08,15,58,49.90
2017,06,08,15,59,56.30
2017,06,08,16,00,46.70
2017,06,08,16,01,43.50
2017,06,08,16,02,33.80
2017,06,08,16,03,30.60
2017,06,08,16,04,46.70
2017,06,08,16,05,54.70
2017,06,08,16,06,66.00
2017,06,08,16,07,48.30
2017,06,08,16,08,41.80
2017,06,08,16,09,56.30
2017,06,08,16,10,35.40
2017,06,08,16,11,41.80
2017,06,08,16,12,22.50
2017,06,08,16,13,41.80
2017,06,08,16,14,32.20
2017,06,08,16,15,54.70
2017,06,08,16,16,30.60
2017,06,08,16,17,35.40
2017,06,08,16,18,43.50
2017,06,08,16,19,56.30
2017,06,08,16,20,51.50
2017,06,08,16,21,41.80
2017,06,08,16,22,38.60
2017,06,08,16,23,38.60
2017,06,08,16,24,32.20
2017,06,08,16,25,30.60
2017,06,08,16,26,32.20
2017,06,08,16,27,41.80
2017,06,08,16,28,29.00
2017,06,08,16,29,51.50
2017,06,08,16,30,45.10
2017,06,08,16,31,35.40
2017,06,08,16,32,37.00
2017,06,08,16,33,35.40
2017,06,08,16,34,38.60
2017,06,08,16,35,49.90
2017,06,08,16,36,41.80
2017,06,08,16,37,38.60
2017,06,08,16,38,43.50
2017,06,08,16,39,35.40
2017,06,08,16,40,25.70
2017,06,08,16,41,33.80
2017,06,08,16,42,51.50
2017,06,08,16,43,46.70
2017,06,08,16,44,48.30
2017,06,08,16,45,30.60
2017,06,08,16,46,29.00
2017,06,08,16,47,38.60
2017,06,08,16,48,41.80
2017,06,08,16,49,38.60
2017,06,08,16,50,41.80
2017,06,08,16,51,33.80
2017,06,08,16,52,25.70
2017,06,08,16,53,22.50
2017,06,08,16,54,30.60
2017,06,08,16,55,43.50
2017,06,08,16,56,27.40
2017,06,08,16,57,24.20
2017,06,08,16,58,35.40
2017,06,08,16,59,37.00
2017,06,08,17,00,25.70
2017,06,08,17,01,25.70
2017,06,08,17,02,33.80
2017,06,08,17,03,37.00
2017,06,08,17,04,37.00
2017,06,08,17,05,43.50
2017,06,08,17,06,33.80
2017,06,08,17,07,24.20
2017,06,08,17,08,32.20
2017,06,08,17,09,43.50
2017,06,08,17,10,29.00
2017,06,08,17,11,30.60
2017,06,08,17,12,33.80
2017,06,08,17,13,16.10
2017,06,08,17,14,24.20
2017,06,08,17,15,41.80
2017,06,08,17,16,37.00
2017,06,08,17,17,41.80
2017,06,08,17,18,29.00
2017,06,08,17,19,29.00
2017,06,08,17,20,32.20
2017,06,08,17,21,37.00
2017,06,08,17,22,35.40
2017,06,08,17,23,33.80
2017,06,08,17,24,25.70
2017,06,08,17,25,30.60
2017,06,08,17,26,37.00
2017,06,08,17,27,24.20
2017,06,08,17,28,33.80
2017,06,08,17,29,37.00
2017,06,08,17,30,30.60
2017,06,08,17,31,32.20
2017,06,08,17,32,37.00
2017,06,08,17,33,30.60
2017,06,08,17,34,25.70
2017,06,08,17,35,29.00
2017,06,08,17,36,22.50
2017,06,08,17,37,27.40
2017,06,08,17,38,37.00
2017,06,08,17,39,24.20
2017,06,08,17,40,25.70
2017,06,08,17,41,22.50
2017,06,08,17,42,29.00
2017,06,08,17,43,25.70
2017,06,08,17,44,35.40
2017,06,08,17,45,45.10
2017,06,08,17,46,35.40
2017,06,08,17,47,35.40
2017,06,08,17,48,37.00
2017,06,08,17,49,30.60
2017,06,08,17,50,25.70
2017,06,08,17,51,33.80
2017,06,08,17,52,27.40
2017,06,08,17,53,29.00
2017,06,08,17,54,32.20
2017,06,08,17,55,37.00
2017,06,08,17,56,37.00
2017,06,08,17,57,38.60
2017,06,08,17,58,30.60
2017,06,08,17,59,32.20
2017,06,08,18,00,33.80
2017,06,08,18,01,27.40
2017,06,08,18,02,32.20
2017,06,08,18,03,32.20
2017,06,08,18,04,22.50
2017,06,08,18,05,22.50
2017,06,08,18,06,24.20
2017,06,08,18,07,45.10
2017,06,08,18,08,30.60
2017,06,08,18,09,27.40
2017,06,08,18,10,17.70
2017,06,08,18,11,12.90
2017,06,08,18,12,27.40
2017,06,08,18,13,38.60
2017,06,08,18,14,40.20
2017,06,08,18,15,25.70
2017,06,08,18,16,40.20
2017,06,08,18,17,38.60
2017,06,08,18,18,38.60
2017,06,08,18,19,32.20
2017,06,08,18,20,25.70
2017,06,08,18,21,35.40
2017,06,08,18,22,37.00
2017,06,08,18,23,33.80
2017,06,08,18,24,41.80
2017,06,08,18,25,29.00
2017,06,08,18,26,29.00
2017,06,08,18,27,29.00
2017,06,08,18,28,33.80
2017,06,08,18,29,27.40
2017,06,08,18,30,25.70
2017,06,08,18,31,30.60
2017,06,08,18,32,25.70
2017,06,08,18,33,33.80
2017,06,08,18,34,41.80
2017,06,08,18,35,30.60
2017,06,08,18,36,41.80
2017,06,08,18,37,45.10
2017,06,08,18,38,38.60
2017,06,08,18,39,32.20
2017,06,08,18,40,32.20
2017,06,08,18,41,38.60
2017,06,08,18,42,30.60
2017,06,08,18,43,32.20
2017,06,08,18,44,35.40
2017,06,08,18,45,32.20
2017,06,08,18,46,22.50
2017,06,08,18,47,19.30
2017,06,08,18,48,19.30
2017,06,08,18,49,27.40
2017,06,08,18,50,20.90
2017,06,08,18,51,17.70
2017,06,08,18,52,22.50
2017,06,08,18,53,19.30
2017,06,08,18,54,37.00
2017,06,08,18,55,27.40
2017,06,08,18,56,35.40
2017,06,08,18,57,38.60
2017,06,08,18,58,35.40
2017,06,08,18,59,25.70
2017,06,08,19,00,45.10
2017,06,08,19,01,38.60
2017,06,08,19,02,24.20
2017,06,08,19,03,24.20
2017,06,08,19,04,33.80
2017,06,08,19,05,27.40
2017,06,08,19,06,35.40
2017,06,08,19,07,20.90
2017,06,08,19,08,35.40
2017,06,08,19,09,27.40
2017,06,08,19,10,35.40
2017,06,08,19,11,38.60
2017,06,08,19,12,25.70
2017,06,08,19,13,37.00
2017,06,08,19,14,22.50
2017,06,08,19,15,17.70
2017,06,08,19,16,17.70
2017,06,08,19,17,25.70
2017,06,08,19,18,30.60
2017,06,08,19,19,29.00
2017,06,08,19,20,30.60
2017,06,08,19,21,38.60
2017,06,08,19,22,27.40
2017,06,08,19,23,29.00
2017,06,08,19,24,35.40
2017,06,08,19,25,30.60
2017,06,08,19,26,16.10
2017,06,08,19,27,17.70
2017,06,08,19,28,16.10
2017,06,08,19,29,20.90
2017,06,08,19,30,17.70
2017,06,08,19,31,20.90
2017,06,08,19,32,24.20
2017,06,08,19,33,29.00
2017,06,08,19,34,27.40
2017,06,08,19,35,25.70
2017,06,08,19,36,19.30
2017,06,08,19,37,25.70
2017,06,08,19,38,25.70
2017,06,08,19,39,16.10
2017,06,08,19,40,17.70
2017,06,08,19,41,20.90
2017,06,08,19,42,17.70
2017,06,08,19,43,22.50
2017,06,08,19,44,25.70